TimeEDT,TemperatureF,Dew PointF,Humidity,Sea Level PressureIn,VisibilityMPH,Wind Direction,Wind SpeedMPH,Gust SpeedMPH,PrecipitationIn,Events,Conditions,WindDirDegrees,DateUTC
12:53 AM,66.9,64.9,93,30.11,9.0,Calm,Calm,-,0.00,,Partly Cloudy,0,2013-06-25 04:53:00
1:53 AM,68.0,64.9,90,30.09,10.0,Calm,Calm,-,N/A,,Clear,0,2013-06-25 05:53:00
2:53 AM,66.9,64.9,93,30.06,10.0,Calm,Calm,-,N/A,,Clear,0,2013-06-25 06:53:00
3:53 AM,66.0,64.9,96,30.07,7.0,Calm,Calm,-,N/A,,Clear,0,2013-06-25 07:53:00
4:53 AM,66.0,64.9,96,30.06,5.0,Calm,Calm,-,N/A,,Partly Cloudy,0,2013-06-25 08:53:00
5:53 AM,66.0,64.9,96,30.07,5.0,Calm,Calm,-,N/A,,Partly Cloudy,0,2013-06-25 09:53:00
6:53 AM,66.9,64.9,93,30.09,5.0,Calm,Calm,-,N/A,,Partly Cloudy,0,2013-06-25 10:53:00
7:53 AM,68.0,66.0,93,30.11,6.0,Calm,Calm,-,N/A,,Clear,0,2013-06-25 11:53:00
8:53 AM,72.0,68.0,87,30.12,10.0,Calm,Calm,-,N/A,,Clear,0,2013-06-25 12:53:00
9:53 AM,73.9,69.1,85,30.12,10.0,Variable,3.5,-,N/A,,Clear,0,2013-06-25 13:53:00
10:53 AM,77.0,70.0,79,30.12,10.0,Variable,3.5,-,N/A,,Partly Cloudy,0,2013-06-25 14:53:00
11:14 AM,78.8,71.6,78,30.15,10.0,Calm,Calm,-,N/A,,Mostly Cloudy,0,2013-06-25 15:14:00
11:21 AM,80.6,71.6,74,30.15,10.0,Calm,Calm,-,N/A,,Scattered Clouds,0,2013-06-25 15:21:00
11:53 AM,79.0,70.0,74,30.10,10.0,Variable,4.6,-,N/A,,Scattered Clouds,0,2013-06-25 15:53:00
12:07 PM,78.8,69.8,74,30.15,10.0,Calm,Calm,-,N/A,,Mostly Cloudy,0,2013-06-25 16:07:00
12:25 PM,78.8,69.8,74,30.14,10.0,Calm,Calm,-,N/A,,Mostly Cloudy,0,2013-06-25 16:25:00
12:53 PM,82.0,71.1,69,30.09,10.0,Variable,3.5,-,N/A,,Scattered Clouds,0,2013-06-25 16:53:00
1:44 PM,80.6,69.8,70,30.12,10.0,Calm,Calm,-,N/A,,Mostly Cloudy,0,2013-06-25 17:44:00
1:50 PM,80.6,71.6,74,30.12,10.0,Calm,Calm,-,N/A,Thunderstorm,Mostly Cloudy,0,2013-06-25 17:50:00
1:53 PM,81.0,71.1,72,30.08,10.0,Calm,Calm,-,N/A,Thunderstorm,Overcast,0,2013-06-25 17:53:00
2:09 PM,80.6,69.8,70,30.12,10.0,Calm,Calm,-,N/A,,Mostly Cloudy,0,2013-06-25 18:09:00
2:53 PM,79.0,71.1,77,30.07,10.0,Calm,Calm,-,N/A,,Partly Cloudy,0,2013-06-25 18:53:00
3:53 PM,78.1,71.1,79,30.05,10.0,Calm,Calm,-,N/A,,Clear,0,2013-06-25 19:53:00
4:53 PM,79.0,69.1,72,30.04,10.0,Calm,Calm,-,N/A,,Clear,0,2013-06-25 20:53:00
5:53 PM,79.0,71.1,77,30.02,10.0,Calm,Calm,-,N/A,,Clear,0,2013-06-25 21:53:00
6:53 PM,80.1,72.0,76,29.99,10.0,Calm,Calm,-,N/A,,Clear,0,2013-06-25 22:53:00
7:53 PM,79.0,71.1,77,29.98,10.0,Calm,Calm,-,N/A,,Clear,0,2013-06-25 23:53:00
8:53 PM,75.9,70.0,82,29.99,10.0,Calm,Calm,-,N/A,,Clear,0,2013-06-26 00:53:00
9:53 PM,75.0,70.0,84,30.00,10.0,Calm,Calm,-,N/A,,Clear,0,2013-06-26 01:53:00
10:53 PM,75.0,68.0,79,30.01,10.0,Variable,3.5,-,N/A,,Clear,0,2013-06-26 02:53:00
11:53 PM,73.9,68.0,82,29.99,10.0,Calm,Calm,-,N/A,,Clear,0,2013-06-26 03:53:00